• Join FlightAware (Why Join?)
  • Login
  • US Flag 
07:50PM EST


 

Airport Tracker/Info


-or-


 

Live Flight TrackerFlight Track Log ✈ ASQ4577 ✈ 16-Jul-2013 ✈ KCLE - KALB

Flight Track Log - Related Links

Times and Time Zones

All times are in EDT time to prevent confusion due to time zone crossing. See the ASQ4577 flight status page for this flight to view local times or setup timezone preferences in your user account.

Time Position Orientation Groundspeed Altitude Reporting Facility
EDT Latitude Longitude Course Direction KTS MPH feet Rate Location/Type
07:06PM 41.4194 -81.8375 75° East 168 193 1,600  Level Cleveland Center
07:07PM 41.4719 -81.7969 30° Northeast 248 285 3,400 2,100 Climbing Cleveland Center
07:08PM 41.5244 -81.7536 32° Northeast 281 323 5,700 2,580 Climbing Cleveland Center
07:09PM 41.6411 -81.6090 37° Northeast  Level FlightAware Approximate
07:09PM 41.5836 -81.6936 37° Northeast 281 323 8,500  Level Cleveland Center
07:10PM 41.7222 -81.5278 37° Northeast  Level FlightAware Approximate
07:10PM 41.6508 -81.6225 38° Northeast 271 312 10,600  Level Cleveland Center
07:11PM 41.8033 -81.4467 37° Northeast  Level FlightAware Approximate
07:11PM 41.7225 -81.5456 39° Northeast 298 343 11,700  Level Cleveland Center
07:12PM 41.8434 -81.3329 75° East  Level FlightAware Approximate
07:12PM 41.8003 -81.4606 39° Northeast 331 381 13,300  Level Cleveland Center
07:13PM 41.8511 -81.3469 59° Northeast 342 394 15,000 1,500 Climbing Cleveland Center
07:14PM 41.8708 -81.2106 79° East 354 407 16,400 1,320 Climbing Cleveland Center
07:15PM 41.8942 -81.0714 77° East 372 428 17,700 1,080 Climbing Cleveland Center
07:16PM 41.9136 -80.9458 78° East 377 434 18,600 1,080 Climbing Cleveland Center
07:17PM 41.9389 -80.7925 77° East 382 440 19,900 1,140 Climbing Cleveland Center
07:18PM 41.9600 -80.6642 77° East 382 440 20,900 1,020 Climbing Cleveland Center
07:19PM 41.9828 -80.5133 78° East 400 460 22,000 1,140 Climbing Cleveland Center
07:20PM 42.0036 -80.3681 79° East 400 460 23,200 1,140 Climbing Cleveland Center
07:21PM 42.0281 -80.2197 77° East 400 460 24,300 1,080 Climbing Cleveland Center
07:22PM 42.0525 -80.0686 78° East 400 460 25,400 1,140 Climbing Cleveland Center
07:23PM 42.0767 -79.9033 79° East 407 468 26,600 1,140 Climbing Cleveland Center
07:24PM 42.0989 -79.7550 79° East 412 474 27,700 1,140 Climbing Cleveland Center
07:25PM 42.1183 -79.6089 80° East 412 474 28,900 1,140 Climbing Cleveland Center
07:26PM 42.1419 -79.4547 78° East 412 474 30,000 1,020 Climbing Cleveland Center
07:27PM 42.1614 -79.3058 80° East 412 474 31,000 480 Climbing Cleveland Center
07:28PM 42.1825 -79.1625 79° East 420 483 31,000  Level Cleveland Center
07:29PM 42.2053 -78.9853 80° East 432 497 31,000  Level Cleveland Center
07:30PM 42.2261 -78.8333 79° East 450 518 31,000  Level Cleveland Center
07:31PM 42.2483 -78.6617 80° East 455 524 31,000  Level Cleveland Center
07:32PM 42.2703 -78.4842 80° East 460 529 31,000  Level Cleveland Center
07:33PM 42.2919 -78.3122 80° East 465 535 31,000  Level Cleveland Center
07:34PM 42.3133 -78.1347 81° East 465 535 31,000  Level Cleveland Center
07:35PM 42.3325 -77.9625 81° East 465 535 31,000 -360 Level Cleveland Center
07:36PM 42.3536 -77.7931 80° East 465 535 30,300 -600 Descending Cleveland Center
07:39PM 42.4064 -77.3111 81° East 464 534 29,000 -360 Descending Boston Center
07:40PM 42.4225 -77.1775 81° East 459 528 29,000  Level Boston Center
07:41PM 42.4428 -76.9847 82° East 459 528 29,000  Level Boston Center
07:42PM 42.4619 -76.8142 81° East 459 528 29,000  Level Boston Center
07:43PM 42.4811 -76.6411 81° East 464 534 29,000  Level Boston Center
07:44PM 42.5000 -76.4675 82° East 464 534 29,000  Level Boston Center
07:45PM 42.5183 -76.2969 82° East 464 534 29,000  Level Boston Center
07:46PM 42.5406 -76.0672 82° East 464 534 29,000  Level Boston Center
07:47PM 42.5583 -75.8961 82° East 464 534 29,000  Level Boston Center
07:48PM 42.5761 -75.7222 82° East 464 534 29,000  Level Boston Center
07:49PM 42.5908 -75.5622 83° East 472 543 29,000 -360 Level Boston Center
07:50PM 42.6081 -75.3881 82° East 472 543 28,300 -1,440 Descending Boston Center
07:51PM 42.6200 -75.2447 83° East 467 537 26,200 -3,000 Descending Boston Center
07:52PM 42.6397 -75.0367 83° East 462 532 22,400 -3,780 Descending Boston Center
07:53PM 42.6506 -74.9186 83° East 441 507 20,100 -3,420 Descending Boston Center
07:54PM 42.6692 -74.7272 82° East 411 473 16,100 -2,940 Descending Boston Center
07:54PM 42.6722 -74.6767 85° East 417 480 15,000 -2,340 Descending Boston Center
07:55PM 42.6753 -74.5158 88° East 385 443 12,500 -2,040 Descending Boston Center
07:56PM 42.6528 -74.3711 102° East 362 417 11,000 -1,500 Descending Boston Center
07:57PM 42.6378 -74.2775 102° East 311 358 9,500 -1,740 Descending Boston Center
07:58PM 42.6283 -74.2094 101° East 270 311 8,400 -2,040 Descending Boston Center
07:58PM 42.6189 -74.1583 104° East 284 327 7,500 -1,920 Descending Boston Center
07:59PM 42.6092 -74.1100 105° East 278 320 6,500 -1,920 Descending Boston Center
07:59PM 42.6014 -74.0619 102° East 273 314 5,600 -1,740 Descending Boston Center
08:00PM 42.5919 -74.0025 102° East 274 315 4,600 -1,500 Descending Boston Center
08:01PM 42.5764 -73.9064 102° East 262 302 3,200 -1,200 Descending Boston Center
08:02PM 42.5942 -73.8192 74° East 216 249 2,300 -900 Descending Boston Center